Flag for Canada Weather past 2 weeks in Selkirk, Manitoba, Canada

Now
57 °F

Cool.


Feels Like: 57 °F
Forecast: 49 / 73 °F
Wind: 1 mph from Southwest

Location: Winnipeg The Forks

Current Time: Sep 21, 2014 at 9:20:17 PM

Latest Report: Sep 21, 2014 at 8:00 PM


Visibility: N/A

Pressure: 30.14 "Hg

Humidity: 78%

Dew point: 50 °F

Location of SelkirkLocation

Historic Weather in Selkirk — Graph

°F

Selkirk temperature yesterday

Maximum temperature yesterday: 57 °F (at 6:00 PM)
Minimum temperature yesterday: 47 °F (at 7:00 AM)
Average temperature yesterday: 54 °F

Past Weeks' High & Low Weather Summary

 TemperatureHumidityPressure
High76 °F (Sep 7, 5:00 PM)96% (Sep 21, 9:00 AM)30.44 "Hg (Sep 21, 9:00 AM)
Low36 °F (Sep 18, 4:00 AM)24% (Sep 15, 4:00 PM)29.43 "Hg (Sep 19, 12:00 PM)
Average54 °F69%30.01 "Hg
* Reported Sep 6 8:00 PM — Sep 21 8:00 PM, Selkirk, Weather by CustomWeather, © 2014

Note: Actual official high and low records may vary slightly from our data, if they occured in-between our weather recording intervals... More about our weather records

Advertising

Selkirk weather history for previous 24 hours

 ConditionsComfort  
Time TempWeatherWind HumidityBarometerVisibility
8:00 PM
Sep 21
57 °FCool.1 mph78%30.14 "HgN/A
7:00 PM63 °FMild.2 mph60%30.14 "HgN/A
6:00 PM64 °FMild.3 mph58%30.15 "HgN/A
5:00 PM65 °FMild.3 mph56%30.15 "HgN/A
4:00 PM63 °FMild.5 mph62%30.16 "HgN/A
3:00 PM63 °FMild.3 mph66%30.17 "HgN/A
2:00 PM61 °FCool.3 mph68%30.19 "HgN/A
1:00 PM61 °FCool.1 mph72%30.20 "HgN/A
12:00 PM59 °FCool.1 mph81%30.20 "HgN/A
11:00 AM53 °FCool.2 mph91%30.21 "HgN/A
10:00 AM52 °FCool.2 mph89%30.19 "HgN/A
9:00 AM51 °FCool.5 mph96%30.17 "HgN/A
8:00 AM50 °FCool.3 mph95%30.14 "HgN/A
7:00 AM50 °FCool.5 mph94%30.11 "HgN/A
6:00 AM51 °FCool.3 mph93%30.09 "HgN/A
5:00 AM51 °FCool.3 mph92%30.06 "HgN/A
4:00 AM51 °FCool.5 mph90%30.04 "HgN/A
3:00 AM52 °FCool.3 mph88%30.02 "HgN/A
2:00 AM53 °FCool.5 mph88%30.01 "HgN/A
1:00 AM54 °FCool.5 mph86%29.98 "HgN/A
12:00 AM53 °FCool.3 mph87%29.96 "HgN/A
11:00 PM
Sep 20
52 °FCool.5 mph89%29.93 "HgN/A
10:00 PM54 °FCool.3 mph85%29.91 "HgN/A
9:00 PM55 °FCool.2 mph84%29.89 "HgN/A
Weather by CustomWeather, © 2014

See weather overviewHow to use our weather pages